Location: Julian California
(33.0790°N, 116.6010°W)
Time: 17:18:28
(UTC-08:00)

Cosmos 1867 - Pass Details

Date: 12 July 2018
Orbit: 773 x 803 km, 65.0° (Epoch: 15 December)

Event Time Altitude Azimuth Distance (km) Brightness Sun altitude
Rises 20:37:21 0° 204° (SSW) 3,235 6.6 -8.1°
Reaches altitude 10° 20:39:44 10° 203° (SSW) 2,314 5.9 -8.6°
Maximum altitude 20:45:03 81° 116° (ESE) 793 3.5 -9.5°
Drops below altitude 10° 20:50:26 10° 30° (NNE) 2,346 6.1 -10.4°
Sets 20:52:52 0° 30° (NNE) 3,283 6.8 -10.8°
